Regional Weather Roundup
Issued by NWS

Home | Current Version | Previous Version | Graphics & Text | Print | Product List | Glossary On
Versions: 1 2 3 4 5 6 7 8 9 10 11 12 13 14 15 16 17 18 19 20 21 22 23 24 25 26 27 28 29 30 31 32 33 34 35 36 37 38 39 40 41 42 43 44 45 46 47 48 49 50
000
ASUS43 KOAX 261502
RWRNE

WEATHER ROUNDUP FOR NEBRASKA
NATIONAL WEATHER SERVICE OMAHA NE
900 AM CST MON JAN 26 2015

NOTES: SATELLITE DATA IS BEING USED TO AUGMENT CLOUD COVER ABOVE
       12000 FEET.
       "FAIR" INDICATES FEW OR NO CLOUDS BELOW 12,000 FEET WITH NO
       SIGNIFICANT WEATHER AND/OR OBSTRUCTIONS TO VISIBILITY.

  * THESE STATIONS DO NOT REPORT WEATHER SUCH AS RAIN...SNOW OR FOG.

NEZ001>004-019>022-054>056-261600-
NEBRASKA PANHANDLE

CITY           SKY/WX    TMP DP  RH WIND       PRES   REMARKS
SCOTTSBLUFF    CLEAR     38  30  73 N5        30.17R WCI  34
ALLIANCE       CLEAR     37  30  75 W12       30.12R WCI  29
CHADRON        CLEAR     45  30  55 NW17      30.10R
SIDNEY         CLEAR     42  29  59 W10       30.17R
$$

NEZ057>060-069>072-079>082-261600-
SOUTHWEST NEBRASKA

CITY           SKY/WX    TMP DP  RH WIND       PRES   REMARKS
NORTH PLATTE   CLEAR     35  31  85 W9        30.08R WCI  28
IMPERIAL       CLEAR     43  29  57 W14       30.11R
LEXINGTON      CLEAR     39  33  77 W16       30.04R WCI  30
MCCOOK         CLEAR     43  31  62 NW17      30.08R
$$

NEZ005>010-023>029-035>040-094-261600-
NORTH CENTRAL NEBRASKA

CITY           SKY/WX    TMP DP  RH WIND       PRES   REMARKS
VALENTINE      CLEAR     40  32  73 W10       30.00R WCI  33
BROKEN BOW     CLEAR     47  32  56 NW18      29.98R
ORD            CLEAR     45  32  60 NW14      29.94R
$$

NEZ041-046>049-061>064-073>077-083>087-261600-
SOUTH CENTRAL NEBRASKA

CITY           SKY/WX    TMP DP  RH WIND       PRES   REMARKS
GRAND ISLAND   SUNNY     39  32  76 W10       29.96R WCI  32
AURORA         SUNNY     43  33  69 W13       29.95R
HASTINGS       SUNNY     39  31  72 W12       29.96R WCI  32
KEARNEY *      SUNNY     43  30  61 W14       29.98S
$$

NEZ011>018-030>034-042>045-261600-
NORTHEAST NEBRASKA

CITY           SKY/WX    TMP DP  RH WIND       PRES   REMARKS
NORFOLK        SUNNY     45  35  68 W9        29.88R
ALBION         SUNNY     40  33  76 NW10      29.91R WCI  33
COLUMBUS *     SUNNY     39  30  70 W7        29.92R WCI  34
FREMONT        SUNNY     36  32  84 W13       29.88S WCI  28
TEKAMAH        SUNNY     36  31  82 CALM      29.87R
$$

NEZ050>053-065>068-078-088>093-261600-
SOUTHEAST NEBRASKA

CITY           SKY/WX    TMP DP  RH WIND       PRES   REMARKS
LINCOLN        SUNNY     36  29  75 W5        29.93R WCI  32
OMAHA EPPLEY   MOSUNNY   32  29  88 S3        29.88S
FALLS CITY     SUNNY     35  29  78 SW10      29.91F WCI  27
NEBRASKA CITY  SUNNY     35  30  83 W16       29.88F WCI  25
$$

NEZ044-045-051>053-067-261600-
OMAHA AREA

CITY           SKY/WX    TMP DP  RH WIND       PRES   REMARKS
OMAHA EPPLEY   MOSUNNY   32  29  88 S3        29.88S
FREMONT        SUNNY     36  32  84 W13       29.88S WCI  28
WAHOO          FAIR      41  32  71 NW12      29.89S
$$



USA.gov is the U.S. government's official web portal to all federal, state and local government web resources and services.